Weather History for YTEF - September, 2012

Change the Weather History Date:

Wednesday, September 12, 2012

  Actual Average Record
Temperature  
Mean Temperature 78 °F -  
Max Temperature 97 °F - - ()
Min Temperature 59 °F - - ()
Cooling Degree Days 13    
Growing Degree Days 28 (Base 50)    
Moisture  
Dew Point 24 °F    
Average Humidity 12    
Maximum Humidity 27    
Minimum Humidity 4    
Precipitation  
Precipitation 0.00 in - - ()
Sea Level Pressure  
Sea Level Pressure 29.97 in    
Wind  
Wind Speed 3 mph ()    
Max Wind Speed 10 mph    
Max Gust Speed -    
T = Trace of Precipitation, MM = Missing Value Source: Averaged Metar Reports

Daily Weather History Graph

Daily Weather History Graph

Search for Another Location

Airport or City:

Trip Planner

Search our weather history database for the weather conditions in past years. The results will help you decide how hot, cold, wet, or windy it might be!

Date:

Astronomy

Sep. 12, 2012 Rise Set
Actual Time 5:50 AM AWST 5:44 PM AWST
Civil Twilight 5:28 AM AWST 6:06 PM AWST
Nautical Twilight 5:02 AM AWST 6:32 PM AWST
Astronomical Twilight 4:36 AM AWST 6:58 PM AWST
Moon 2:41 AM AWST (9/12) 2:09 PM AWST (9/12)
Length of Visible Light 12h 38m
Length of Day
11h 54m
Waning Crescent, 17% of the Moon is Illuminated
Sep 12
Waning Crescent
Sep 16
New
Sep 23
First Quarter
Sep 30
Full
Oct 8
Last Quarter

Hourly Weather History & Observations

Time (AWST) Temp. Dew Point Humidity Pressure Visibility Wind Dir Wind Speed Gust Speed Precip Events Conditions
12:00 AM 70 °F 28 °F 11% 29.98 in - Calm Calm - -  
12:00 AM 69.8 °F 26.6 °F 20% 30.01 in - Calm Calm - N/A   Unknown
1:00 AM 66.2 °F 28.4 °F 24% 29.98 in - ESE 5.8 mph - N/A   Unknown
2:00 AM 65 °F 27 °F 13% 29.95 in - WSW 1.2 mph - -  
2:00 AM 66.2 °F 26.6 °F 23% 29.98 in - WSW 1.2 mph - N/A   Unknown
3:00 AM 65 °F 27 °F 14% 29.94 in - Calm Calm - -  
3:00 AM 64.4 °F 26.6 °F 24% 29.98 in - Calm Calm - N/A   Unknown
4:00 AM 62.6 °F 28.4 °F 27% 29.98 in - NNE 3.5 mph - N/A   Unknown
5:00 AM 64 °F 27 °F 14% 29.95 in - Calm Calm - -  
5:00 AM 64.4 °F 26.6 °F 24% 29.98 in - Calm Calm - N/A   Unknown
6:00 AM 64 °F 26 °F 13% 29.97 in - Calm Calm - -  
6:00 AM 64.4 °F 24.8 °F 22% 30.01 in - Calm Calm - N/A   Unknown
7:00 AM 69.8 °F 30.2 °F 23% 30.01 in - Calm Calm - N/A   Unknown
7:52 AM 78.8 °F 33.8 °F 20% 30.04 in - South 3.5 mph - N/A   Unknown
8:00 AM 80 °F 33 °F 10% 30.00 in - South 5.8 mph - -  
9:00 AM 85 °F 29 °F 6% 30.01 in - SSE 9.2 mph - -  
9:00 AM 86.0 °F 28.4 °F 12% 30.04 in - SSE 9.2 mph - N/A   Unknown
10:00 AM 89.6 °F 24.8 °F 10% 30.04 in - South 9.2 mph - N/A   Unknown
11:00 AM 92 °F 23 °F 4% 29.98 in - South 8.1 mph - -  
11:00 AM 93.2 °F 23.0 °F 8% 30.01 in - South 8.1 mph - N/A   Unknown
12:00 PM 95 °F 21 °F 4% 29.96 in - ENE 6.9 mph - -  
1:00 PM 96.8 °F 17.6 °F 6% 29.95 in - NE 8.1 mph - N/A   Unknown
2:00 PM 96 °F 18 °F 4% 29.91 in - NE 10.4 mph - -  
2:00 PM 95.0 °F 17.6 °F 6% 29.95 in - NE 10.4 mph - N/A   Unknown
3:00 PM 96 °F 19 °F 4% 29.90 in - NW 5.8 mph - -  
3:00 PM 96.8 °F 19.4 °F 6% 29.92 in - NW 5.8 mph - N/A   Unknown
4:00 PM 95.0 °F 17.6 °F 6% 29.92 in - ENE 4.6 mph - N/A   Unknown
5:00 PM 94 °F 21 °F 4% 29.90 in - SSW 2.3 mph - -  
5:00 PM 95.0 °F 21.2 °F 7% 29.92 in - SSW 2.3 mph - N/A   Unknown
6:00 PM 88 °F 22 °F 4% 29.92 in - South 5.8 mph - -  
6:00 PM 87.8 °F 23.0 °F 9% 29.95 in - South 5.8 mph - N/A   Unknown
7:00 PM 82.4 °F 28.4 °F 14% 29.98 in - SSE 8.1 mph - N/A   Unknown
8:00 PM 77 °F 22 °F 6% 29.96 in - ESE 6.9 mph - -  
8:00 PM 77.0 °F 23.0 °F 13% 30.01 in - ESE 6.9 mph - N/A   Unknown
9:00 PM 80 °F 21 °F 5% 29.97 in - SSE 8.1 mph - -  
9:00 PM 80.6 °F 21.2 °F 11% 30.01 in - SSE 8.1 mph - N/A   Unknown
10:00 PM 77.0 °F 21.2 °F 12% 30.01 in - SSE 9.2 mph - N/A   Unknown
11:00 PM 74 °F 22 °F 7% 29.96 in - SSE 8.1 mph - -  
11:00 PM 73.4 °F 21.2 °F 14% 30.01 in - SSE 8.1 mph - N/A   Unknown